Home > Weather > Radom > Past weeks

Flag for Poland Past Weather in Radom, Poland — Yesterday and Last 2 Weeks

Now
75 °F

Overcast.


Feels Like: 77 °F
Forecast: 60 / 83 °F
Wind: 2 mph from Northwest

Location: Kielce

Current Time: Jul 23, 2016 at 7:10:31 PM

Latest Report: Jul 23, 2016 at 6:00 PM


Visibility: 17 mi

Pressure: 30.06 "Hg

Humidity: 58%

Dew Point: 59 °F

Location of RadomLocation

Past Weather in Radom — Graph

°F

Radom Temperature Yesterday

Maximum temperature yesterday: 78 °F (at 4:00 PM)
Minimum temperature yesterday: 47 °F (at 5:00 AM)
Average temperature yesterday: 65 °F

High & Low Weather Summary for the Past Weeks

 TemperatureHumidityPressure
High91 °F (Jul 11, 3:00 PM)100% (Jul 20, 4:00 AM)30.20 "Hg (Jul 20, 4:00 AM)
Low46 °F (Jul 21, 5:00 AM)27% (Jul 22, 4:00 PM)29.58 "Hg (Jul 14, 2:00 PM)
Average64 °F74%29.98 "Hg
* Reported Jul 8 5:00 PM — Jul 23 5:00 PM, Radom, Weather by CustomWeather, © 2016

Note: Actual official high and low records may vary slightly from our data, if they occured in-between our weather recording intervals... More about our weather records

Advertising

Radom Weather History for the Previous 24 Hours

Scroll right to see more
 ConditionsComfort  
Time TempWeatherWind HumidityBarometerVisibility
5:00 PM
Sat, Jul 23
75 °FOvercast.3 mph56%30.06 "Hg15 mi
4:00 PM75 °FOvercast.3 mph56%30.07 "Hg17 mi
3:00 PM74 °FOvercast.2 mph59%30.08 "Hg17 mi
2:00 PM74 °FOvercast.3 mph63%30.08 "Hg19 mi
1:00 PM72 °FOvercast.2 mph62%30.08 "Hg19 mi
12:00 PM73 °FPartly sunny.3 mph64%30.07 "Hg19 mi
11:00 AM71 °FScattered clouds.3 mph64%30.07 "Hg22 mi
10:00 AM71 °FScattered clouds.2 mph65%30.07 "Hg19 mi
9:00 AM68 °FPassing clouds.2 mph72%30.08 "Hg18 mi
8:00 AM65 °FPassing clouds.1 mph81%30.08 "Hg11 mi
7:00 AM60 °FPassing clouds.No wind93%30.09 "Hg6 mi
6:00 AM54 °FFog.1 mph96%30.09 "Hg5 mi
5:00 AM52 °FFog.1 mph97%30.09 "Hg5 mi
4:00 AM51 °FFog.1 mph95%30.08 "Hg6 mi
3:00 AM52 °FClear.No wind95%30.08 "Hg6 mi
2:00 AM53 °FClear.No wind92%30.09 "Hg6 mi
1:00 AM56 °FClear.1 mph90%30.07 "Hg9 mi
12:00 AM58 °FClear.1 mph87%30.06 "Hg9 mi
11:00 PM
Fri, Jul 22
61 °FClear.1 mph79%30.06 "Hg16 mi
10:00 PM64 °FPassing clouds.No wind67%30.04 "Hg22 mi
9:00 PM67 °FPassing clouds.1 mph56%30.03 "Hg25 mi
8:00 PM72 °FPassing clouds.2 mph44%30.01 "Hg28 mi
7:00 PM75 °FPassing clouds.2 mph40%29.99 "Hg28 mi
Weather by CustomWeather, © 2016

See weather overviewHow to use our weather pages